Weather History for KMYL - March, 2014

Change the Weather History Date:

Thursday, March 20, 2014

  Actual Average Record
Temperature  
Mean Temperature 29 °F 30 °F  
Max Temperature 36 °F 41 °F 63 °F (1947)
Min Temperature 21 °F 20 °F -8 °F (1943)
Degree Days  
Heating Degree Days 36 35  
Month to date heating degree days 645 747  
Since 1 July heating degree days 6639 7422  
Cooling Degree Days 0 0  
Month to date cooling degree days 0 0  
Year to date cooling degree days 0 0  
Moisture  
Dew Point 11 °F    
Average Humidity 50    
Maximum Humidity 75    
Minimum Humidity 24    
Precipitation  
Precipitation T in 0.08 in 0.62 in (1953)
Month to date precipitation 4.19 1.29  
Year to date precipitation 9.00 4.76  
Sea Level Pressure  
Sea Level Pressure 30.09 in    
Wind  
Wind Speed 7 mph (WNW)    
Max Wind Speed 20 mph    
Max Gust Speed 25 mph    
Visibility 10 miles    
Events Snow    
T = Trace of Precipitation, MM = Missing Value Source: NWS Daily Summary

Daily Weather History Graph

Daily Weather History Graph

Search for Another Location

Airport or City:

Trip Planner

Search our weather history database for the weather conditions in past years. The results will help you decide how hot, cold, wet, or windy it might be!

Date:

Astronomy

Mar. 20, 2014 Rise Set
Actual Time 7:47 AM MDT 7:57 PM MDT
Civil Twilight 7:18 AM MDT 8:26 PM MDT
Nautical Twilight 6:43 AM MDT 9:00 PM MDT
Astronomical Twilight 6:08 AM MDT 9:35 PM MDT
Moon No Moon Rise 9:46 AM MDT (3/20)
Length of Visible Light 13h 08m
Length of Day
12h 09m
Waning Gibbous, 83% of the Moon is Illuminated
Mar 20
Waning Gibbous
Mar 23
Last Quarter
Mar 30
New
Apr 7
First Quarter
Apr 15
Full

Hourly Weather History & Observations

Time (MDT) Temp. Windchill Dew Point Humidity Pressure Visibility Wind Dir Wind Speed Gust Speed Precip Events Conditions
12:51 AM 28.0 °F - 18.0 °F 66% 30.01 in 10.0 mi Calm Calm - N/A   Scattered Clouds
1:51 AM 28.9 °F - 19.9 °F 69% 30.00 in 9.0 mi Calm Calm - N/A   Clear
2:51 AM 28.9 °F - 21.0 °F 72% 29.95 in 10.0 mi Calm Calm - N/A   Clear
3:51 AM 30.0 °F - 19.0 °F 64% 30.00 in 10.0 mi Calm Calm - N/A   Clear
4:51 AM 28.9 °F - 19.0 °F 67% 30.00 in 10.0 mi Calm Calm - N/A   Mostly Cloudy
5:51 AM 30.9 °F 23.5 °F 18.0 °F 59% 30.00 in 10.0 mi WSW 8.1 mph - N/A   Clear
6:51 AM 32.0 °F 22.1 °F 16.0 °F 52% 30.01 in 10.0 mi WSW 13.8 mph 18.4 mph N/A   Overcast
7:51 AM 30.0 °F 23.2 °F 19.9 °F 66% 30.06 in 10.0 mi WSW 6.9 mph - N/A   Overcast
8:51 AM 30.0 °F 22.4 °F 19.0 °F 64% 30.07 in 9.0 mi West 8.1 mph - 0.00 in Snow Light Snow
9:51 AM 30.9 °F 23.5 °F 16.0 °F 54% 30.08 in 9.0 mi West 8.1 mph - 0.00 in   Mostly Cloudy
10:51 AM 32.0 °F 24.2 °F 14.0 °F 48% 30.11 in 10.0 mi West 9.2 mph - N/A   Clear
11:51 AM 32.0 °F 25.6 °F 10.0 °F 40% 30.13 in 10.0 mi WNW 6.9 mph - N/A   Clear
12:51 PM 33.1 °F 26.9 °F -0.9 °F 23% 30.13 in 10.0 mi Variable 6.9 mph - N/A   Clear
1:51 PM 34.0 °F 25.5 °F 1.0 °F 25% 30.12 in 10.0 mi WNW 11.5 mph 19.6 mph N/A   Clear
2:51 PM 34.0 °F 24.6 °F 3.9 °F 28% 30.13 in 10.0 mi West 13.8 mph 19.6 mph N/A   Clear
3:51 PM 34.0 °F 25.5 °F 5.0 °F 30% 30.12 in 10.0 mi WNW 11.5 mph - N/A   Clear
4:51 PM 35.1 °F 28.6 °F 6.1 °F 30% 30.13 in 10.0 mi NNW 8.1 mph - N/A   Partly Cloudy
5:51 PM 35.1 °F 27.9 °F 8.1 °F 33% 30.12 in 10.0 mi West 9.2 mph - N/A   Scattered Clouds
6:51 PM 34.0 °F 28.8 °F 5.0 °F 30% 30.12 in 10.0 mi WNW 5.8 mph - N/A   Clear
7:51 PM 30.0 °F 24.1 °F 3.9 °F 33% 30.16 in 10.0 mi NW 5.8 mph - N/A   Clear
8:51 PM 28.0 °F 18.1 °F 7.0 °F 41% 30.18 in 10.0 mi North 11.5 mph - N/A   Scattered Clouds
9:51 PM 27.0 °F 19.5 °F 7.0 °F 43% 30.20 in 10.0 mi North 6.9 mph - N/A   Mostly Cloudy
10:51 PM 25.0 °F 17.1 °F 7.0 °F 46% 30.21 in 10.0 mi NNW 6.9 mph - N/A   Clear
11:51 PM 24.1 °F 18.2 °F 7.0 °F 48% 30.22 in 10.0 mi NNE 4.6 mph - N/A   Clear